Date,TemperatureHighF,TemperatureAvgF,TemperatureLowF,DewpointHighF,DewpointAvgF,DewpointLowF,HumidityHigh,HumidityAvg,HumidityLow,PressureMaxIn,PressureMinIn,WindSpeedMaxMPH,WindSpeedAvgMPH,GustSpeedMaxMPH,PrecipitationSumIn
2013-9-1,83.3,74.5,70.3,77.3,72.5,69.4,100,93,79,29.88,29.78,10,2,10,0.71
2013-9-2,87.8,76.5,70.3,76.6,72.9,68.4,100,89,64,29.87,29.70,11,3,11,0.18
2013-9-3,90.7,75.6,66.0,74.2,68.8,61.1,100,81,43,29.80,29.67,13,2,13,0.00
2013-9-4,86.2,71.8,59.5,61.3,56.4,50.1,93,63,33,29.92,29.79,15,3,15,0.00
2013-9-5,65.7,64.0,62.6,59.8,58.3,56.7,84,82,79,29.91,29.85,4,1,4,0.00
2013-9-6,75.9,61.5,45.5,54.2,40.1,27.9,97,51,19,30.24,30.09,8,2,8,0.00
2013-9-7,85.3,67.6,52.3,56.0,48.7,43.5,77,54,27,30.09,29.85,11,3,11,0.00
2013-9-8,79.2,68.4,57.2,60.7,50.1,28.8,83,55,21,30.09,29.73,14,5,14,0.00
2013-9-9,77.2,60.6,44.6,51.2,43.5,32.8,91,58,23,30.24,30.08,11,2,11,0.00
2013-9-10,80.2,69.2,58.8,70.1,62.4,50.1,92,79,68,30.16,30.02,17,4,17,0.00
2013-9-11,101.8,83.7,70.3,76.1,71.9,66.2,100,72,35,30.06,29.92,10,3,10,0.00
2013-9-12,92.7,79.1,69.6,73.2,70.7,68.3,97,78,48,29.95,29.66,14,4,14,0.00
2013-9-13,86.7,71.3,62.2,73.2,65.4,55.3,100,84,45,29.74,29.55,13,2,13,0.00
2013-9-14,72.0,63.3,52.5,55.3,52.3,49.4,91,68,48,30.06,29.74,10,3,10,0.00
2013-9-15,79.3,61.9,48.6,55.8,49.9,45.6,100,70,32,30.16,30.05,9,1,9,0.00
2013-9-16,73.8,60.8,52.2,58.2,49.9,36.9,85,68,48,30.24,30.00,15,3,15,0.00
2013-9-17,71.8,54.4,46.6,44.6,37.4,29.2,89,56,29,30.42,30.24,12,3,12,0.00
2013-9-18,80.6,60.4,43.2,50.2,42.3,32.9,100,60,19,30.33,30.14,8,2,8,0.00
2013-9-19,84.0,64.7,50.2,55.7,50.3,46.1,88,64,30,30.14,30.02,5,1,5,0.00
2013-9-20,84.4,65.2,51.3,58.6,54.5,50.9,100,73,34,30.08,29.99,6,1,6,0.00
2013-9-21,81.7,68.6,55.9,66.5,60.7,55.5,100,79,47,30.02,29.72,15,4,15,0.00
2013-9-22,75.7,69.5,62.8,68.0,62.6,49.5,100,81,42,29.72,29.60,14,4,14,0.00
2013-9-23,68.5,59.9,48.2,59.6,41.6,38.1,97,52,34,29.63,29.44,14,5,14,4.39
2013-9-24,72.7,55.4,43.0,48.6,41.0,34.9,91,62,26,29.54,29.35,13,3,13,0.00
2013-9-25,49.6,46.3,44.6,47.7,44.6,43.8,100,94,83,29.45,29.42,4,0,4,0.00
2013-9-26,71.6,60.2,53.4,51.3,48.9,45.5,89,68,41,30.12,29.52,7,1,7,0.00
2013-9-27,70.5,60.3,50.0,53.7,50.4,46.4,94,71,47,30.25,29.66,9,3,9,0.00
2013-9-28,76.5,58.5,47.3,58.7,51.9,47.0,100,82,46,30.32,29.79,7,1,7,0.00
2013-9-29,70.3,56.1,46.4,60.0,50.6,46.1,100,84,51,30.27,29.66,8,1,8,0.00
2013-9-30,75.2,58.9,47.8,57.1,51.4,45.4,100,79,38,30.11,29.51,7,1,7,0.00